Wind_Speed
28 28 29 31 32 34 35 36 37 37 38 39 41 42 42 44 44 45 46 47 47 46 46 47 47 47 47 47 47 46 46 46 46 46 45 45 44 43 43 42 41 41 40 39
26 27 28 29 31 33 34 34 34 36 37 39 41 42 42 43 43 44 45 46 47 47 47 47 48 48 48 49 48 48 47 47 47 47 46 46 46 45 44 44 43 42 42 41
24 25 26 28 29 31 32 33 32 33 34 37 39 40 41 41 42 43 44 45 46 47 47 47 48 48 49 49 49 49 48 48 48 47 47 47 47 46 46 45 45 44 43 43
22 21 23 25 27 28 29 30 30 31 32 34 37 39 40 40 40 42 43 44 45 46 46 47 48 49 49 49 49 49 49 49 49 49 48 48 47 46 46 46 46 45 45 44
21 19 20 22 23 24 25 26 27 28 30 33 34 36 38 39 40 40 42 43 44 45 45 46 47 47 48 49 49 50 49 49 49 49 49 49 48 48 47 47 47 47 46 45
18 17 18 20 20 21 22 24 25 25 27 30 32 34 35 37 38 39 41 42 43 43 44 45 46 46 47 48 49 49 49 49 49 49 49 49 49 49 48 48 48 48 47 46
16 16 17 18 20 20 21 21 23 24 25 26 28 31 34 35 36 37 39 40 41 42 42 43 45 46 46 47 48 48 48 48 49 49 49 49 49 49 49 49 48 48 48 47
16 16 16 17 18 19 20 20 22 24 25 25 26 28 30 32 34 36 37 38 40 40 41 42 43 45 46 47 47 47 47 48 48 49 49 49 49 49 49 49 49 49 48 48
17 16 16 16 17 18 19 20 20 22 25 26 26 28 29 30 32 35 36 37 39 40 41 42 43 44 45 46 47 47 47 47 48 48 50 50 50 50 49 50 50 50 49 48
17 17 16 15 16 18 18 20 20 21 22 24 26 28 29 29 31 33 35 37 38 39 40 42 43 44 45 46 46 46 47 48 48 48 49 50 51 51 50 50 50 50 50 49
18 17 16 15 15 15 16 19 21 21 22 23 23 25 27 27 28 30 33 36 38 39 40 41 41 43 44 45 46 46 47 48 48 48 48 50 51 51 51 51 51 51 51 50
17 16 15 15 15 15 17 18 18 20 21 23 25 25 26 27 27 29 31 33 36 37 39 40 41 42 43 45 46 46 46 47 48 48 48 49 49 50 51 51 51 51 51 51
16 16 15 15 15 16 17 19 19 20 21 21 22 23 25 26 27 28 29 31 33 35 36 38 40 41 42 44 46 47 47 46 46 47 48 48 49 49 50 50 51 51 51 51
15 15 15 15 15 16 16 19 21 21 22 22 21 20 21 24 25 27 28 29 30 32 34 36 38 39 41 43 44 46 46 46 46 46 46 47 47 48 49 50 51 51 51 51
16 15 15 15 15 15 16 17 19 21 22 22 21 21 21 23 25 25 26 28 29 30 31 33 35 37 38 40 41 43 44 44 45 45 46 46 47 48 48 48 49 50 51 51
17 16 15 15 15 15 16 16 16 18 19 20 21 22 22 23 25 27 27 27 28 30 31 32 33 35 37 39 40 41 42 43 44 45 45 46 47 48 48 48 48 50 50 50
16 16 16 15 15 16 16 16 16 16 17 18 19 20 22 23 25 27 29 29 29 30 31 32 33 34 36 38 39 40 41 41 42 43 44 45 46 47 48 48 48 49 50 51
17 16 16 16 15 15 15 15 15 16 17 18 20 20 22 23 24 26 28 29 29 30 31 32 33 34 36 37 38 40 41 41 42 43 43 44 45 46 47 47 48 48 49 50
17 17 17 17 17 16 15 15 15 16 17 19 20 20 21 22 22 24 26 27 28 29 30 32 33 35 36 37 38 38 40 41 42 42 43 44 44 45 45 46 47 47 48 49
19 18 18 18 18 17 16 16 16 16 17 18 19 20 21 22 22 22 24 25 27 28 29 31 32 33 35 36 37 37 39 40 41 41 42 43 44 44 44 44 45 45 46 47
19 19 18 18 18 18 17 17 17 17 18 18 19 20 20 21 22 23 24 25 25 27 28 29 30 31 32 33 34 35 36 37 38 39 40 40 41 41 41 42 43 43 44 44
20 20 20 19 19 19 18 19 18 18 19 19 20 20 20 21 22 22 24 25 26 26 27 28 29 29 29 30 31 32 33 35 36 37 37 38 38 38 39 39 40 41 42 42
20 20 20 20 19 19 20 20 20 20 20 20 20 21 21 21 21 21 22 24 25 26 27 27 28 28 28 29 30 30 31 33 34 35 36 36 36 36 37 38 39 39 40 41
21 21 21 20 20 20 20 20 20 20 20 21 21 21 21 21 21 22 22 22 24 25 26 26 27 27 28 28 28 29 30 31 32 33 34 34 35 35 35 36 36 37 37 38
22 21 21 20 19 19 19 20 20 20 20 20 21 21 21 21 21 21 21 21 22 23 24 24 25 25 26 26 27 27 28 29 29 30 31 32 33 33 33 33 33 34 34 35
22 21 20 20 19 19 18 18 19 20 20 20 19 19 19 20 20 20 20 20 20 21 21 22 22 22 24 24 25 25 26 27 28 28 29 30 31 32 32 32 32 32 32 33
Wind_Direction
272 266 261 261 258 255 253 252 250 248 246 244 243 242 240 238 237 236 235 235 234 235 235 235 235 235 235 235 235 236 236 236 237 237 238 239 239 239 239 240 241 243 244 245
270 266 265 263 258 256 253 251 249 248 247 246 244 243 241 239 237 236 236 236 235 235 235 235 235 236 236 235 236 236 237 237 237 237 238 239 239 239 239 240 241 243 244 246
274 271 268 264 258 256 253 250 250 249 249 247 245 243 241 239 238 237 236 236 236 236 236 236 235 235 235 235 236 236 237 238 238 238 238 239 240 239 240 241 242 243 244 246
276 273 269 264 258 255 254 251 251 248 248 247 244 243 239 238 236 236 236 236 236 235 236 236 236 235 235 235 236 236 237 238 238 238 239 240 241 241 241 242 243 243 244 245
280 274 268 263 260 257 253 251 251 250 247 247 244 243 240 238 235 236 236 236 235 235 235 235 235 235 235 235 236 236 236 237 238 238 238 239 240 241 242 242 243 243 244 245
284 279 273 267 264 262 256 250 249 248 246 245 242 243 242 238 237 237 236 235 235 235 235 235 234 234 235 235 236 236 236 237 238 238 238 239 240 241 242 242 243 244 244 245
288 283 277 270 264 262 258 250 247 246 246 248 242 241 241 239 238 238 237 236 236 235 235 236 234 234 235 235 235 236 237 237 238 239 239 239 240 241 242 242 243 244 244 245
297 292 284 275 269 264 257 248 245 245 248 249 245 242 240 239 239 239 238 237 236 235 236 236 236 235 235 235 236 237 238 238 239 240 240 240 241 241 242 243 243 244 245 246
306 300 291 282 274 265 256 247 246 250 251 251 248 245 241 239 239 240 239 239 237 237 237 237 237 237 236 236 236 238 238 239 240 241 241 241 242 242 242 243 244 245 246 246
305 301 294 285 277 268 260 254 250 250 251 252 249 248 245 242 240 240 241 240 240 238 239 238 238 238 238 237 238 239 240 240 240 242 242 242 243 243 243 244 244 245 246 246
307 301 294 286 276 272 264 257 254 255 254 252 252 252 248 246 245 243 242 241 241 241 240 240 240 239 239 239 238 240 240 241 241 242 242 242 243 243 244 244 244 245 245 246
311 302 292 285 280 273 267 259 259 259 261 258 255 254 251 250 246 244 243 243 243 243 242 242 242 241 240 240 240 240 241 241 241 242 242 242 243 243 244 244 244 245 246 246
313 303 295 287 281 276 269 263 262 264 264 262 258 257 254 251 249 246 244 245 245 244 244 244 243 242 241 242 242 241 241 242 241 241 242 242 243 244 244 244 244 245 246 246
315 304 297 292 285 283 276 268 263 263 262 261 259 255 252 249 248 246 244 244 244 244 246 246 244 243 243 242 242 242 242 242 241 241 241 242 243 244 245 245 245 246 246 247
316 307 303 298 291 287 283 277 269 264 263 263 260 256 253 251 249 247 247 246 245 246 246 246 245 244 243 243 242 242 242 242 242 242 242 243 243 245 246 247 247 247 247 247
316 311 307 301 296 291 284 282 277 269 265 264 261 257 255 253 252 250 250 249 248 247 247 247 246 245 243 242 242 242 242 243 244 244 244 244 245 245 247 248 249 249 248 248
317 313 309 304 298 292 283 282 279 275 269 266 263 261 259 257 256 253 250 250 249 248 248 247 247 245 244 243 243 243 243 243 243 244 245 245 246 246 248 249 250 250 249 248
316 312 307 304 298 289 288 283 280 277 273 269 266 263 262 259 258 256 253 253 251 250 249 248 248 246 246 245 245 245 245 244 245 245 246 246 246 247 248 249 250 250 249 249
317 312 308 305 299 293 286 285 285 281 276 271 269 266 265 263 260 257 255 255 254 252 251 251 250 249 248 247 246 246 246 246 246 247 247 247 247 248 249 250 251 251 250 250
316 312 308 305 301 297 291 288 286 283 280 276 272 270 269 267 265 261 259 258 257 255 254 252 251 251 251 250 248 248 247 247 247 247 248 248 249 249 249 250 251 251 251 251
317 312 306 303 300 296 293 291 289 284 283 281 278 275 272 270 268 265 263 261 259 257 255 253 252 252 251 250 250 249 248 248 248 248 248 249 249 250 250 251 251 251 252 252
321 315 308 303 301 297 295 291 288 287 283 281 279 278 277 274 273 270 265 263 262 261 259 257 255 253 253 251 250 249 248 248 249 249 249 249 249 250 251 251 252 252 253 253
320 318 312 306 301 297 294 292 290 287 285 283 281 280 279 277 275 273 269 266 263 263 262 259 256 254 254 254 252 251 251 250 250 249 248 249 249 250 251 252 253 253 254 254
321 318 315 310 305 298 294 291 290 289 287 286 284 282 281 279 277 274 272 270 265 263 261 258 257 256 255 254 253 252 252 252 251 250 249 248 248 249 250 251 252 251 253 254
322 319 318 315 311 304 299 294 291 289 288 288 287 285 283 281 279 277 275 274 269 265 262 259 257 256 255 254 253 253 252 252 250 249 248 248 248 248 249 250 251 251 252 253
323 321 321 320 317 312 306 299 293 289 288 288 289 288 286 283 280 278 276 275 273 268 264 261 258 257 255 253 252 250 250 249 249 248 248 249 249 249 250 250 250 251 252 253
Height
5623 5624 5623 5626 5628 5630 5631 5633 5634 5637 5639 5642 5646 5650 5655 5659 5664 5670 5675 5681 5686 5692 5697 5702 5707 5711 5716 5721 5725 5730 5734 5738 5742 5746 5750 5754 5758 5761 5765 5768 5771 5774 5777 5780
5615 5615 5617 5617 5618 5619 5620 5622 5624 5626 5628 5631 5635 5639 5643 5648 5653 5658 5664 5669 5675 5681 5686 5691 5696 5700 5705 5710 5715 5719 5724 5728 5732 5737 5740 5744 5748 5752 5755 5759 5762 5765 5768 5771
5606 5608 5607 5607 5608 5609 5611 5613 5615 5617 5619 5621 5624 5628 5632 5638 5642 5647 5653 5658 5664 5670 5675 5680 5684 5689 5694 5699 5704 5709 5713 5718 5722 5726 5730 5734 5738 5741 5745 5749 5753 5756 5759 5762
5599 5599 5599 5599 5600 5601 5602 5605 5607 5608 5609 5611 5615 5617 5622 5627 5632 5637 5642 5647 5653 5658 5663 5668 5673 5678 5683 5688 5693 5698 5703 5707 5711 5715 5720 5724 5728 5732 5736 5739 5742 5746 5749 5752
5592 5592 5592 5592 5593 5593 5595 5597 5599 5600 5601 5603 5605 5608 5613 5616 5621 5627 5632 5637 5642 5647 5652 5657 5662 5667 5672 5677 5682 5687 5691 5696 5700 5705 5709 5713 5717 5721 5725 5728 5732 5735 5739 5742
5587 5586 5586 5585 5586 5587 5588 5589 5591 5592 5592 5594 5597 5600 5603 5607 5612 5617 5622 5627 5632 5636 5641 5646 5651 5656 5661 5666 5670 5675 5680 5685 5689 5694 5698 5702 5706 5710 5714 5717 5721 5725 5728 5731
5583 5581 5580 5580 5580 5581 5581 5583 5583 5583 5584 5586 5589 5591 5595 5599 5604 5608 5613 5617 5622 5626 5631 5636 5641 5645 5650 5655 5660 5664 5669 5673 5678 5682 5686 5691 5695 5699 5703 5707 5710 5714 5718 5721
5578 5577 5575 5575 5575 5575 5576 5577 5578 5578 5579 5581 5582 5583 5588 5592 5596 5599 5603 5608 5612 5617 5621 5626 5630 5634 5639 5644 5649 5653 5658 5662 5666 5671 5675 5679 5683 5687 5691 5695 5699 5703 5707 5710
5573 5572 5571 5570 5570 5570 5570 5570 5572 5573 5573 5574 5575 5577 5581 5584 5588 5591 5594 5598 5603 5607 5611 5615 5619 5624 5628 5633 5638 5642 5647 5651 5655 5659 5663 5667 5671 5676 5680 5683 5687 5691 5695 5698
5569 5568 5567 5566 5565 5565 5565 5566 5566 5566 5567 5567 5569 5571 5574 5577 5580 5583 5586 5589 5593 5597 5601 5605 5609 5613 5617 5622 5626 5630 5635 5639 5644 5648 5651 5656 5659 5664 5667 5671 5675 5679 5683 5686
5564 5563 5562 5561 5559 5559 5560 5561 5560 5561 5562 5563 5563 5567 5567 5570 5573 5575 5578 5580 5583 5587 5591 5595 5598 5602 5606 5610 5615 5619 5623 5627 5632 5636 5640 5643 5647 5651 5655 5659 5663 5667 5670 5674
5560 5559 5557 5556 5555 5555 5555 5555 5556 5557 5557 5557 5557 5562 5560 5563 5564 5566 5569 5571 5574 5577 5581 5584 5588 5591 5595 5599 5603 5607 5611 5615 5619 5624 5627 5631 5635 5638 5643 5647 5650 5654 5658 5662
5556 5554 5553 5551 5552 5551 5550 5550 5550 5551 5551 5551 5552 5556 5554 5555 5557 5559 5561 5563 5566 5569 5572 5575 5578 5581 5585 5588 5591 5595 5599 5603 5607 5611 5615 5619 5623 5626 5630 5634 5638 5642 5646 5649
5552 5550 5549 5548 5545 5545 5545 5545 5544 5545 5545 5545 5546 5547 5548 5549 5550 5552 5553 5555 5558 5560 5563 5565 5568 5571 5574 5577 5580 5584 5587 5591 5595 5599 5603 5607 5611 5615 5618 5622 5626 5629 5633 5637
5548 5547 5545 5543 5541 5540 5540 5540 5539 5539 5539 5540 5541 5541 5542 5542 5543 5545 5546 5548 5550 5552 5554 5556 5559 5561 5564 5567 5570 5573 5576 5580 5584 5588 5592 5595 5599 5603 5606 5610 5613 5617 5620 5624
5544 5543 5541 5540 5538 5536 5535 5534 5534 5533 5533 5534 5534 5535 5536 5536 5536 5537 5539 5540 5542 5544 5546 5548 5550 5552 5554 5557 5559 5562 5566 5569 5573 5577 5580 5584 5587 5590 5594 5597 5600 5604 5607 5611
5541 5539 5537 5536 5534 5532 5531 5530 5529 5528 5528 5528 5528 5530 5529 5529 5529 5530 5531 5532 5534 5535 5537 5538 5540 5542 5544 5546 5549 5552 5555 5559 5562 5566 5569 5572 5575 5578 5582 5585 5588 5591 5594 5597
5537 5534 5532 5531 5530 5528 5529 5525 5524 5523 5523 5522 5522 5522 5522 5522 5522 5522 5523 5524 5525 5526 5527 5529 5530 5532 5534 5536 5539 5542 5545 5548 5551 5554 5557 5560 5563 5566 5569 5572 5575 5578 5581 5584
5533 5530 5528 5526 5524 5523 5523 5521 5519 5518 5518 5517 5516 5516 5515 5515 5515 5515 5515 5516 5516 5517 5518 5519 5520 5522 5524 5526 5528 5531 5534 5537 5540 5543 5546 5549 5552 5555 5557 5560 5563 5565 5568 5571
5529 5526 5524 5521 5519 5518 5518 5516 5514 5514 5512 5511 5509 5509 5508 5508 5508 5509 5508 5508 5508 5509 5509 5510 5511 5512 5514 5516 5518 5520 5523 5526 5529 5532 5534 5537 5540 5543 5546 5548 5550 5553 5555 5558
5525 5522 5519 5517 5514 5513 5512 5510 5509 5509 5508 5505 5503 5502 5501 5500 5501 5501 5500 5500 5500 5500 5501 5501 5502 5503 5504 5506 5508 5510 5513 5515 5518 5521 5523 5526 5529 5531 5534 5536 5539 5541 5543 5546
5520 5517 5514 5512 5509 5510 5506 5504 5504 5503 5500 5499 5497 5496 5495 5494 5493 5493 5492 5492 5492 5492 5493 5493 5494 5495 5496 5497 5499 5501 5503 5506 5508 5511 5513 5515 5518 5520 5523 5525 5527 5529 5531 5534
5515 5513 5509 5507 5507 5503 5500 5499 5497 5496 5494 5492 5491 5490 5488 5487 5486 5485 5485 5484 5484 5484 5484 5485 5485 5487 5488 5489 5490 5492 5494 5496 5498 5501 5503 5505 5507 5510 5512 5514 5516 5518 5520 5522
5511 5507 5504 5501 5499 5497 5494 5493 5491 5489 5488 5486 5484 5483 5482 5481 5480 5479 5478 5477 5477 5476 5476 5477 5477 5478 5479 5480 5482 5483 5485 5487 5489 5491 5493 5495 5497 5500 5502 5503 5505 5507 5508 5510
5506 5502 5499 5496 5494 5491 5489 5487 5485 5483 5481 5480 5478 5476 5475 5474 5473 5472 5471 5470 5469 5469 5469 5469 5469 5470 5471 5472 5474 5475 5477 5478 5480 5482 5484 5486 5488 5490 5491 5493 5495 5496 5498 5499
5501 5498 5494 5491 5488 5485 5483 5480 5478 5476 5475 5473 5472 5470 5469 5467 5466 5465 5464 5464 5463 5462 5462 5462 5463 5463 5464 5465 5466 5467 5469 5470 5471 5473 5475 5477 5478 5480 5482 5484 5485 5486 5488 5489